星链-34241 (STARLINK-34241)

导读

STARLINK-34241是美国SpaceX星链星座计划中的一颗卫星,于2025年6月5日发射入轨,隶属于美国太空探索技术公司打造的低轨互联网星座网络。该卫星延续星链设计,旨在为全球提供高速低延迟宽带互联网服务,补充完善星座覆盖密度,推进全球全域网络覆盖部署,服务偏远地区网络接入等需求。

基本信息
目录编号:
64229
目录名称:
STARLINK-34241
国际标识:
2025-117AC
轨道中心:
EARTH
卫星名称:
星链-34241
卫星全名:
星链-34241 (STARLINK-34241)
卫星状态:
在轨 (已飞行378 天)
发射日期:
2025-05-31 UTC
国别 :
美国 (US)
星等 :
--
轨道信息
数据来源 国际轨道数据
星历时间: 2026-06-13T23:32:21+0800
8小时前
查看轨道信息
半长轴: 6840.791km
偏心率: 0.000127
轨道倾角: 53.160°
近地点辐角 79.349°
升交点赤经 313.499°
平近点角 280.766°
近地点: 461.785km
远地点: 463.523km
周期: 93.847分钟
每日圈数: 15.344167
详细信息
固有亮度:
5
最大亮度:
2.5
卫星平台:
Starlink V1.0
覆盖范围:
全球
运营商:
太空探索技术公司
运营商所在国:
美国
制造商(研发单位):
太空探索技术公司
制造商所在国:
美国
使用方式:
暂无
卫星简介
Starlink 计划是 SpaceX 推出的全球卫星互联网项目,通过发射低轨道卫星,为全球尤其是偏远地区提供高速、低延迟的互联网服务。自 2019 年起,Starlink 已部署数千颗卫星,旨在缩小全球数字鸿沟,推动互联网普及。该项目还为军事、航空等行业提供通信支持,带来广泛经济效益。
2D轨道图
3D轨道图
轨道高度分析图
轨道倾角分析图
轨道综合分析图
查看轨道综合分析图